          10 18  17 51.07  +35 44.5   5.466  5.952     8.7 / 285  15.9   77  .44

          11 18  17 50.38  +35 46.8   5.452  5.944     8.8 / 284  15.9   82  .33

          12 18  17 49.68  +35 48.9   5.439  5.937     8.9 / 283  15.9   89  .23

          13 18  17 48.96  +35 50.8   5.426  5.929     9.0 / 282  15.9   95  .13

          14 18  17 48.23  +35 52.7   5.413  5.922     9.2 / 281  15.9  101  .06

          15 18  17 47.49  +35 54.4   5.400  5.915     9.3 / 280  15.9  107  .02

          16 18  17 46.74  +35 55.9   5.387  5.907     9.4 / 279  15.9  112  .00

          17 18  17 45.97  +35 57.3   5.375  5.900     9.5 / 278  15.9  115  .01

          18 18  17 45.19  +35 58.6   5.362  5.892     9.6 / 277  15.8  116  .06

          19 18  17 44.40  +35 59.7   5.350  5.885     9.8 / 276  15.8  115  .12

          20 18  17 43.60  +36 00.6   5.338  5.877     9.9 / 275  15.8  113  .20

          21 18  17 42.79  +36 01.4   5.326  5.870    10.0 / 274  15.8  109  .29

          22 18  17 41.97  +36 02.1   5.315  5.862    10.1 / 273  15.8  105  .39

          23 18  17 41.14  +36 02.5   5.303  5.855    10.2 / 272  15.8  100  .49

          24 18  17 40.30  +36 02.8   5.292  5.847    10.3 / 271  15.8   95  .58

          25 18  17 39.45  +36 03.0   5.281  5.840    10.4 / 270  15.8   89  .68

          26 18  17 38.59  +36 02.9   5.270  5.833    10.5 / 269  15.8   84  .76

          27 18  17 37.72  +36 02.7   5.259  5.825    10.6 / 268  15.8   79  .84

          28 18  17 36.84  +36 02.3   5.248  5.818    10.7 / 267  15.7   74  .90

          29 18  17 35.96  +36 01.8   5.238  5.810    10.9 / 266  15.7   70  .95

          30 18  17 35.07  +36 01.0   5.228  5.803    11.0 / 265  15.7   67  .98

          31 18  17 34.17  +36 00.1   5.218  5.795    11.1 / 264  15.7   65 1.00

     June  1 18  17 33.26  +35 59.0   5.208  5.788    11.2 / 263  15.7   64  .99

NAKANO

         **** Don't distribute anyone except personal use only ****

                (C) Copyright 2007 OAA/ComputingSection

write mail from CFAD0::NAKANO on 2007-04-20 00:16:57(JST).

 

◎C/2007 G1の軌道と予報位置    [From BSGC Web News No. 106]



JSGA Web News No. 106                                             2007 Apr. 17



特異小惑星 BD47777(C/2007 G1)の確認観測

    LINEARサーベイから2007年4月10日にヘルクレス座を撮影した捜索フレーム上に

発見された18等級の小惑星状天体が報告された.翌4月11日にニューメキシコの25-cm

反射を遠隔操作して,この天体の追跡観測を行なったイタリーのソステロら(G. Sostero

& E. Guido, Castellammare di Stabia)は,この天体には,CCD全光度が17.8等の西

に伸びた10"のほぼコマがあることを認めた.さらに45-cm反射を使用して,この天体

を観測したギドー(E. Guido)は天体には,淡い8"のコマがあることを確認した.英

国のバートホイッスル(P. Birtwhistle, Berkshire)による4月12日の観測でも,5"

のコマが西南に広がっているのを観測し,この天体は,彗星であることが判明した.

  美星スペースガードセンターの坂本T・浦田武両氏(T. Sakamoto & T. Urata)も

同所の1.0-m反射を使用して4月11日に次の確認観測を行なったが,いつものとおり,

形状の報告はなかった.



    CK07G010  C2007 04 11.69857 18 04 50.66 +33 59 40.0          18.3 N EG037300

    CK07G010  C2007 04 11.70550 18 04 50.59 +33 59 42.0          17.9 N EG037300

    CK07G010  C2007 04 11.75467 18 04 49.81 +33 59 54.6          18.3 N EG037300



  彗星の軌道は,次のとおりで,2008年には彗星は,11等級まで明るくなるだろう.



    C/2007 G1 (LINEAR)

T 2008 Nov. 30.82499 TT                                 Nakano

q   2.6313123            (2000.0)            P               Q

                   Peri.  225.13454     -0.13236899     +0.15545574

                   Node    78.25475     -0.35392991     +0.91510450

e   1.0            Incl.   89.07259     -0.92585748     -0.37204470

From 85 observations 2007 Apr. 10-16.

 

Date/  0h TT  R.A.(2000) Decl.     Delta   r     Daily motion  Mag.  Moon Age

                h  m       。  ,                      ,  / PA 。  m1      。

2007 Apr. 20  18 02.19  +34 35.5   5.850  6.181     6.8 / 305  16.2  114  .09

          30  17 57.64  +35 13.6   5.695  6.107     7.9 / 292  16.1   85  .95

     May  10  17 51.65  +35 43.1   5.552  6.033     9.1 / 282  16.0   73  .52

          20  17 44.34  +36 00.6   5.424  5.958    10.2 / 272  15.9  115  .14

          30  17 35.95  +36 02.9   5.312  5.884    11.2 / 263  15.8   70  .96

     June  9  17 26.82  +35 47.4   5.219  5.809    12.1 / 254  15.7   93  .44

          19  17 17.37  +35 12.5   5.145  5.734    12.7 / 245  15.6  102  .18

          29  17 08.05  +34 17.6   5.093  5.660    13.2 / 237  15.6   62  .97

     July  9  16 59.30  +33 03.7   5.060  5.585    13.4 / 228  15.5  114  .35

          19  16 51.50  +31 32.7   5.047  5.510    13.5 / 219  15.4   82  .21

          29  16 44.94  +29 47.4   5.051  5.435    13.4 / 211  15.4   69  .99

     Aug.  8  16 39.79  +27 51.2   5.071  5.360    13.3 / 202  15.3  125  .27

          18  16 36.14  +25 47.5   5.103  5.285    13.1 / 193  15.3   62  .23

          28  16 34.00  +23 39.7   5.143  5.210    12.9 / 184  15.2   88 1.00

     Sept. 7  16 33.29  +21 30.7   5.189  5.135    12.8 / 176  15.2  116  .20

          17  16 33.94  +19 22.8   5.237  5.060    12.8 / 168  15.1   47  .25

          27  16 35.83  +17 18.1   5.283  4.985    12.8 / 160  15.1  113 1.00

     Oct.  7  16 38.83  +15 18.0   5.324  4.910    12.8 / 153  15.0   97  .16

          17  16 42.82  +13 23.7   5.357  4.836    12.9 / 146  15.0   44  .28

          27  16 47.66  +11 35.9   5.378  4.761    13.0 / 141  14.9  135  .99

     Nov.  6  16 53.24  +09 55.1   5.385  4.686    13.1 / 135  14.9   75  .14

          16  16 59.44  +08 21.7   5.376  4.612    13.1 / 131  14.8   56  .30

          26  17 06.12  +06 55.7   5.350  4.538    13.1 / 127  14.7  145  .97

     Dec.  6  17 13.18  +05 37.1   5.303  4.464    13.1 / 123  14.6   54  .12

          16  17 20.50  +04 25.8   5.237  4.390    12.9 / 120  14.5   78  .35

          26  17 27.95  +03 21.4   5.149  4.317    12.6 / 117  14.4  133  .95

2008 Jan.  5  17 35.41  +02 23.4   5.040  4.244    12.2 / 115  14.3   36  .11

          15  17 42.76  +01 31.5   4.910  4.172    11.6 / 114  14.2  105  .41

          25  17 49.85  +00 44.7   4.760  4.099    10.9 / 113  14.0  111  .93

     Feb.  4  17 56.53  +00 02.2   4.592  4.028    10.0 / 113  13.9   29  .10

          14  18 02.65  -00 37.0   4.406  3.957     8.9 / 115  13.7  133  .48

          24  18 08.01  -01 14.3   4.205  3.886     7.6 / 119  13.5   86  .91

     Mar.  5  18 12.42  -01 51.3   3.992  3.816     6.2 / 129  13.3   43  .09

          15  18 15.64  -02 30.0   3.770  3.747     5.0 / 148  13.1  155  .56

          25  18 17.40  -03 12.8   3.542  3.679     5.0 / 180  12.9   58  .90

     Apr.  4  18 17.39  -04 02.4   3.312  3.612     6.8 / 208  12.7   71  .06

          14  18 15.26  -05 02.1   3.087  3.546    10.1 / 223  12.4  140  .63

          24  18 10.64  -06 15.7   2.870  3.481    14.4 / 231  12.2   29  .89

     May   4  18 03.17  -07 46.7   2.669  3.417    19.3 / 235  12.0  109  .04

          14  17 52.55  -09 38.0   2.492  3.355    24.3 / 237  11.7  103  .69

          24  17 38.72  -11 50.9   2.344  3.294    28.9 / 238  11.5   26  .87

     June  3  17 21.91  -14 23.1   2.235  3.234    32.1 / 238  11.3  156  .01

          13  17 02.82  -17 08.6   2.168  3.177    33.3 / 239  11.2   58  .73

          23  16 42.64  -19 58.5   2.147  3.121    32.3 / 238  11.1   68  .84

     July  3  16 22.80  -22 43.4   2.169  3.068    29.2 / 237  11.1  148  .00

          13  16 04.66  -25 17.0   2.230  3.017    25.0 / 235  11.0   12  .76

          23  15 49.25  -27 37.4   2.321  2.968    20.5 / 231  11.1  114  .79

     Aug.  2  15 37.07  -29 45.7   2.433  2.922    16.5 / 223  11.1  101  .00

          12  15 28.27  -31 45.4   2.558  2.878    13.4 / 211  11.1   27  .78

          22  15 22.68  -33 39.8   2.689  2.838    11.7 / 196  11.2  155  .72

     Sept. 1  15 20.03  -35 32.2   2.819  2.800    11.3 / 180  11.2   64  .02

          11  15 20.01  -37 25.0   2.943  2.766    11.8 / 167  11.3   60  .80

          21  15 22.31  -39 20.3   3.056  2.736    12.9 / 157  11.3  160  .64

     Oct.  1  15 26.71  -41 19.4   3.156  2.709    14.3 / 151  11.3   36  .03

          11  15 33.03  -43 23.6   3.241  2.686    15.6 / 147  11.3   88  .83

          21  15 41.14  -45 33.8   3.307  2.667    17.1 / 144  11.4  129  .56

          31  15 51.02  -47 50.8   3.356  2.652    18.5 / 143  11.4   23  .04

     Nov. 10  16 02.69  -50 15.5   3.386  2.641    19.8 / 142  11.4  113  .86

          20  16 16.28  -52 48.2   3.398  2.634    21.3 / 141  11.4  100  .49

          30  16 32.08  -55 29.5   3.392  2.631    22.7 / 140  11.4   34  .05

     Dec. 10  16 50.51  -58 19.6   3.371  2.633    24.2 / 140  11.3  133  .89

          20  17 12.32  -61 17.8   3.337  2.639    25.8 / 139  11.3   78  .44

          30  17 38.71  -64 22.4   3.292  2.649    27.4 / 137  11.3   54  .05

2009 Jan.  9  18 11.58  -67 29.6   3.241  2.664    29.1 / 133  11.3  138  .93

          19  18 53.99  -70 31.3   3.186  2.682    30.7 / 128  11.3   65  .41

          29  19 50.31  -73 12.4   3.133  2.705    32.2 / 119  11.3   72  .07



日本スペースガード協会            (c) Copyright JSGA 2007           中野 主一

         **** Don't distribute anyone except personal use only ****

                (C) Copyright 2007 OAA/ComputingSection

write mail from CFAD0::NAKANO on 2007-04-17 02:53:44(JST).

 





戻ります。